Regional Weather Roundup
Issued by NWS

Home | Current Version | Previous Version | Text Only | Print | Product List | Glossary On
Versions: 1 2 3 4 5 6 7 8 9 10 11 12 13 14 15 16 17 18 19 20 21 22 23 24 25 26 27 28 29 30 31 32 33 34 35 36 37 38 39 40 41 42 43 44 45 46 47 48 49 50
000
ASUS43 KBIS 110302
RWRND

NORTH DAKOTA REGIONAL WEATHER ROUNDUP
NATIONAL WEATHER SERVICE BISMARCK ND
900 PM CST SAT DEC 10 2016

NOTE: "FAIR" INDICATES FEW OR NO CLOUDS BELOW 12,000 FEET WITH NO
SIGNIFICANT WEATHER AND/OR OBSTRUCTIONS TO VISIBILITY.


NDZ001>003-009>011-017-110400-
NORTHWEST NORTH DAKOTA

CITY           SKY/WX    TMP DP  RH WIND       PRES   REMARKS
WILLISTON      LGT SNOW   3  -2  79 SE12      29.95R VSB 3/4 WCI -13
MINOT          CLOUDY    -4  -9  79 E15       30.02F WCI -25
MINOT AFB      CLOUDY    -5 -10  80 E17       30.03F WCI -27
$$

NDZ018>021-031>035-040>046-110400-
SOUTHWEST NORTH DAKOTA

CITY           SKY/WX    TMP DP  RH WIND       PRES   REMARKS
BISMARCK       LGT SNOW   0  -5  79 E12       29.99F WCI -17
DICKINSON      LGT SNOW  -3  -8  79 SE10      29.84S VSB 3/4 WCI -20
GARRISON         N/A     -2  -7  79 E16       29.98F WCI -23
HETTINGER ARPT FLURRIES  -1  -5  82 SE9       29.85R WCI -16
$$

NDZ004>008-012>016-024-026-027-054-110400-
NORTHEAST NORTH DAKOTA

CITY           SKY/WX    TMP DP  RH WIND       PRES   REMARKS
GRAND FORKS    CLOUDY    -5 -10  79 NE7       30.23F WCI -19
GRND FRKS AFB  PTCLDY    -8 -13  78 NE6       30.23F WCI -21
DEVILS LAKE    CLOUDY    -5  -9  83 E15       30.13F WCI -26
$$

NDZ022-023-025-028>030-036>039-047>053-110400-
SOUTHEAST NORTH DAKOTA

CITY           SKY/WX    TMP DP  RH WIND       PRES   REMARKS
FARGO          FLURRIES   3  -4  72 NE8       30.20S WCI -10
JAMESTOWN      LGT SNOW  -1  -6  79 E13       30.07F WCI -19
$$




USA.gov is the U.S. government's official web portal to all federal, state and local government web resources and services.